Regional Weather Roundup
Issued by NWS San Diego, CA

Current Version | Previous Version | Text Only | Print | Product List | Glossary On
Versions: 1 2 3 4 5 6 7 8 9 10 11 12 13 14 15 16 17 18 19 20 21 22 23 24 25 26 27 28 29 30 31 32 33 34 35 36 37 38 39 40 41 42 43 44 45 46 47 48 49 50
000
ASUS46 KSGX 091011
RWRSGX

SAN DIEGO HOURLY WEATHER ROUNDUP
NATIONAL WEATHER SERVICE SAN DIEGO CA
200 AM PST TUE FEB 09 2016

NOTE: "FAIR" INDICATES FEW OR NO CLOUDS BELOW 12,000 FEET WITH NO
SIGNIFICANT WEATHER AND/OR OBSTRUCTIONS TO VISIBILITY.

CAZ042-043-060-061-PZZ750-775-091100-

GREATER SAN DIEGO AREA

CITY           SKY/WX    TMP DP  RH WIND       PRES   REMARKS
LINDBERGH FLD  CLEAR     59  32  36 CALM      30.11S
NATIONAL CITY    N/A     55  35  46 N1        30.10S
CHULA VISTA      N/A     52  37  56 CALM      30.02S
IMPERIAL BEACH CLEAR     62  28  27 N9        30.10R
BROWN FIELD    CLEAR     63  24  22 CALM      30.10F
MIRAMAR MCAS   CLEAR     59  30  33 E10       30.10F
MONTGOMERY FLD CLEAR     56  31  38 E3        30.11S

$$

NORTH SAN DIEGO COUNTY

CITY           SKY/WX    TMP DP  RH WIND       PRES   REMARKS
CAMP PENDLETON CLEAR     52  31  44 N3        30.11S
OCEANSIDE AP   CLEAR     46  32  58 NE3       30.11S
OCEANSIDE HBR    N/A     59  33  37 E12       30.12S
VISTA            N/A     59  29  32 CALM      30.10S
CARLSBAD       CLEAR     60  27  28 NE3       30.10S
DEL MAR          N/A     64  28  25 CALM      30.11F
FALLBROOK        N/A     68  26  20 CALM      30.12S
ESCONDIDO        N/A     55  33  43 CALM      30.12S
SAN MARCOS       N/A     62  25  24 CALM      30.09S
POWAY            N/A     50  33  51 CALM      30.12S

$$

EAST SAN DIEGO COUNTY

CITY           SKY/WX    TMP DP  RH WIND       PRES   REMARKS
RAMONA         CLEAR     53  27  36 SW5       30.14S
SANTEE LAKES     N/A     49  35  57 CALM      30.11S
LA MESA          N/A     62  29  28 CALM      30.04R
JAMUL            N/A     56  30  37 NE2       30.11S
DESCANSO N       N/A     66  16  14 E16       30.00F
MT. LAGUNA OBS   N/A     51  13  21 E13       29.86S
CAMPO            N/A     43  23  45 CALM      30.17F

$$

ORANGE COUNTY AND THE LOS ANGELES BASIN

CITY           SKY/WX    TMP DP  RH WIND       PRES   REMARKS
JOHN WAYNE AP  CLEAR     59  33  37 SW3       30.10F
LAGUNA BEACH     N/A     52  32  47 NW2       30.05F
LAKE FOREST FR   N/A     66  19  16 NE3       29.97S
HUNTINGTON BCH   N/A     55  34  45 CALM      30.12S
LOS ALAMITOS   FAIR      62  32  33 NW5       30.10F
FULLERTON      CLEAR     58  31  35 E3        30.10F
LONG BEACH     CLEAR     60  34  37 W5        30.11F
L.A. AP        CLEAR     63  29  27 NE3       30.12S
L.A. DOWNTOWN  CLEAR     59  31  34 CALM      30.11F

$$

THE INLAND EMPIRE

CITY           SKY/WX    TMP DP  RH WIND       PRES   REMARKS
CORONA         CLEAR     69  25  19 E9        30.15F
CHINO          CLEAR     56  32  40 CALM      30.16S
ONTARIO        CLEAR     56  27  32 N5        30.15S
RIVERSIDE AP   CLEAR     57  28  33 E7        30.16F
MORENO VALLEY    N/A     64  30  27 CALM      28.29S
MARCH ARB      CLEAR     50  24  35 NW3       30.18S
HORSETHIEF CYN   N/A     61  19  19 NW5       30.20R
PERRIS           N/A     57  31  37 CALM      30.21R
HEMET EAST       N/A     62  14  15 CALM      30.06F
FRENCH VALLEY  FAIR      48  30  49 NE9       30.18S
TEMECULA         N/A     52  34  50 W2        30.13F

$$

SAN BERNARDINO AND RIVERSIDE COUNTY MOUNTAINS

CITY           SKY/WX    TMP DP  RH WIND       PRES   REMARKS
BIG BEAR AP    CLEAR     25  18  74 CALM      30.45S
ANGELUS OAKS     N/A     45  21  38 CALM      30.17F
PINE COVE        N/A     60   1   9 NE1       30.16F

$$

SOUTHERN DESERT INCLUDING THE COACHELLA VALLEY

CITY           SKY/WX    TMP DP  RH WIND       PRES   REMARKS
PALM SPRINGS   CLEAR     68  24  19 W6        30.19F
THOUSAND PALMS   N/A     61  26  26 W1        30.16S
PALM DESERT      N/A     58  34  40 CALM      31.25R
THERMAL        CLEAR     53  26  35 W3        30.14S
BLYTHE         CLEAR     59  27  29 N8        30.19S
IMPERIAL AP    CLEAR     53  26  35 W9        30.13F
EL CENTRO NAS  CLEAR     52  22  30 W10       30.15F
YUMA AZ        CLEAR     67  24  19 N10       30.14S
MEXICALI         N/A    N/A N/A N/A MISG        N/A

$$

UPPER DESERT

CITY           SKY/WX    TMP DP  RH WIND       PRES   REMARKS
VICTORVILLE AP CLEAR     39  21  48 CALM      30.33S
HESPERIA         N/A     41  26  55 CALM      30.47S
APPLE VALLEY     N/A     34  23  62 CALM      30.34R
PALMDALE       CLEAR     47  23  38 CALM      30.33S
LANCASTER      CLEAR     36  26  67 W5        30.32F WCI  32
EDWARDS AFB    CLEAR     41  24  50 NW3       30.31S
DAGGETT        CLEAR     45  24  43 CALM      30.32R
29 PALMS N     CLEAR     50  22  33 NW7       30.36F
NEEDLES        CLEAR     64  27  24 N16G24    30.25R

$$

REGIONAL REPORTS

CITY           SKY/WX    TMP DP  RH WIND       PRES   REMARKS
SANTA BARBARA  CLEAR     50  38  63 CALM      30.12S
SANDBERG       CLEAR     57  20  23 E28G43    30.33F
LAS VEGAS NV   CLEAR     50  27  40 S5        30.34R
PHOENIX AZ     CLEAR     63  24  22 NE10      30.16S
TIJUANA        CLEAR     68  14  12 CALM      30.12S
ENSENADA NW      N/A     73  32  22 NE18      30.05F

$$

OFFSHORE ISLANDS

CITY           SKY/WX    TMP DP  RH WIND       PRES   REMARKS
CATALINA ARPT  CLEAR     69  17  13 E8        30.17F
SAN NICOLAS IS CLEAR    N/A N/A N/A N6        30.12S

$$

MARINE AND OFFSHORE BUOY REPORTS

STATION/POSITION SKY/WX   TEMP    WIND        PRES    SWELL
                          AIR SEA DIR/SP/G            HT/PER/DIR
                          (F)     (DEG/KT/KT) (MB)    (FT/S/D)
TANNER BANKS               61 60  340/  6/  8 1019.3F   5/300/17
S CLEMENTE BASIN           62 61  270/  2/  4 1019.3F   3/280/17
SAN NICOLAS IS.               59                N/A     5/300/17
SO. S. ROSA ISLA           60 58              1019.0S
W. S. BARBARA CH           66 57  280/  6/  6 1019.5R   7/290/16
M. S. BARBARA CH           60 57  250/  2/  4 1020.4R
S. MONICA BASIN            66 59   80/  8/  8 1019.7S   2/230/17
S PEDRO CHANNEL               60                N/A     2/270/17
DANA POINT                    60                N/A     2/180/14
OCEANSIDE OFFSHR              60                N/A     2/220/13
TORREY PINES OTR              60                N/A     2/240/13
LA JOLLA 1                 67 59  210/  1/  3 1019.1R
SAN DIEGO BAY                 61              1019.8S
POINT LOMA SOUTH              61                N/A     2/230/13

$$




USA.gov is the U.S. government's official web portal to all federal, state and local government web resources and services.